Vertical_Velocity
0 -1 -1 -1 -1 -1 -0 1 0 -1 0 1 -0 -1 -0 1 2 0 0 -1 -4 -1 -7 0 4 -0 3 -2 -8 -4 -1 -3 -0 -6 0 -5 1 -3 -3 2 1 -1 -0 3 4
-0 -1 -0 -0 -1 -1 -0 1 -0 -1 2 2 0 0 1 0 0 0 -3 -3 -2 -5 1 -2 2 1 1 -1 -9 -4 3 -4 -7 -6 1 -4 8 2 3 2 -5 -4 -5 0 4
0 0 -0 0 -1 -0 0 1 -1 -1 1 1 1 1 -0 1 1 -1 -2 -1 -5 2 -0 3 1 3 6 0 2 -7 -5 -3 -3 -10 2 -1 9 -0 -6 -8 0 -3 -3 -3 -2
-0 -0 -1 -1 -0 -0 0 1 -0 0 0 1 2 1 -1 1 0 -1 -1 -3 1 -9 2 2 -3 2 -1 2 -2 -9 -9 -8 0 -2 -5 -6 -0 2 -1 1 -0 -0 3 -1 2
-0 -0 -1 -0 -0 0 0 1 0 1 -0 1 1 1 -0 -1 -1 -1 -5 -1 -1 2 -2 2 2 -4 -9 -2 -5 10 -5 4 3 -1 -0 -2 -5 -3 1 -1 -2 0 2 1 -1
0 -0 -0 0 0 -0 1 1 0 -0 -0 1 1 -0 -0 1 1 -2 -4 2 -6 -2 -0 2 -3 2 -1 -4 -4 -2 1 -0 2 -2 -0 -2 9 0 3 5 -2 1 -1 -1 0
1 1 0 1 -0 -0 0 1 1 1 0 2 1 0 0 2 -2 1 -2 1 -3 -4 -5 12 0 1 -2 -3 -0 0 -3 -2 -4 -4 -6 2 0 -1 -0 -3 -0 -1 1 3 1
0 1 1 1 0 0 -0 1 1 -0 -0 2 0 -0 -2 1 2 0 1 -1 -2 -3 -6 2 4 4 4 4 6 6 -4 -3 -10 -8 5 -1 -5 0 0 -3 -2 -0 -0 1 4
0 1 0 1 0 0 1 1 0 1 0 1 2 1 1 3 1 1 0 1 -7 -3 -7 -2 4 1 -3 2 -1 -5 -2 -6 -0 -5 3 -1 3 2 2 0 -1 1 -3 1 -1
1 1 1 1 0 1 -1 -1 0 0 -1 -2 -2 -1 -2 -4 2 2 0 3 -8 1 -1 -2 -5 -5 15 2 -3 -3 -7 1 13 -2 -5 -7 -5 -3 -1 2 3 3 -1 -3 -2
0 0 1 1 0 1 -1 2 2 2 2 5 1 -2 -5 -3 -3 2 0 -0 -5 0 -1 -1 -3 -4 -2 -9 -2 1 -0 1 1 6 -2 15 -1 -14 -2 3 2 6 5 -1 -1
2 1 1 0 0 0 -0 -0 -1 -6 -3 1 1 1 2 1 4 -13 3 0 -2 -3 -1 -2 -1 -0 -2 -2 3 5 3 3 -1 1 -0 0 3 5 -16 -4 -7 6 1 3 -2
1 2 1 1 0 2 5 4 1 1 1 2 -0 -1 -3 -1 3 -0 -2 -1 1 1 1 -1 -1 -0 -7 -2 -1 2 -1 -2 -3 -0 -0 -2 1 -0 -9 -4 -9 -1 -3 2 -3
-0 -0 1 1 1 -1 -3 -5 -0 2 -0 3 2 1 5 4 1 7 -3 -0 0 0 -3 -0 5 -1 -4 -8 -4 1 -0 -3 -1 2 0 -2 3 -4 -6 -5 -6 -20 3 5 3
-1 0 -1 0 1 4 1 3 4 0 6 2 0 4 4 2 6 3 -2 -1 2 -1 -0 1 1 -3 1 -5 -3 -1 -3 -3 -1 -0 4 1 -2 2 -0 1 -8 3 -13 -4 -0
-0 -1 -1 -1 0 -3 -0 1 -0 3 4 2 2 2 3 -0 2 2 3 3 -1 -2 2 -2 -1 1 4 1 -0 -0 -0 -1 -1 1 5 2 -11 1 -5 -2 -1 8 -3 2 -3
-1 -1 -1 -3 -0 -0 2 2 1 -0 2 -1 1 3 3 2 3 3 4 4 2 1 -0 -0 -1 -1 -2 1 0 -2 -2 -1 3 -2 2 0 -6 -2 4 -0 4 -7 3 -10 -4
1 -0 -2 -2 -3 -1 0 2 2 -6 -1 -2 -5 -1 0 1 2 2 4 5 2 1 2 1 1 3 -0 1 0 -3 -3 -4 -4 -3 1 6 -5 -4 7 -4 -5 -2 -12 -8 -13
-0 1 -1 -1 -1 -2 -0 5 -3 -1 -2 -1 4 4 -1 -0 -5 -1 -1 1 1 1 1 -3 11 -4 -4 2 -2 6 -1 -0 -4 -5 -9 -1 8 4 -5 4 -2 5 6 2 6
0 -1 2 -0 -2 -1 -1 11 0 1 -0 -1 -2 1 4 3 1 -1 -5 3 -1 -4 -5 0 10 -3 3 -3 2 -0 2 -1 2 -3 -12 5 -2 -10 9 -5 6 -10 3 -2 1
0 4 -4 0 -0 -2 2 12 3 2 1 0 -2 -0 -2 -2 -2 -2 5 -1 -6 -3 -3 -2 -6 11 1 -0 6 4 3 3 -2 -2 -2 -9 8 -11 -3 3 1 -5 23 -19 35
-1 2 -3 3 -1 2 6 11 6 1 -4 -4 3 1 -1 -2 -3 -3 -4 1 -6 -4 1 -3 -2 -6 0 9 6 4 -2 2 4 -2 -5 -7 14 -8 -10 -1 6 12 -9 4 4
-2 -3 2 -1 3 1 1 5 0 1 -0 0 -2 1 4 -2 3 1 -1 1 -6 1 -8 -6 -13 -5 -2 1 -0 -1 -0 3 -3 -2 4 -2 -8 -3 3 -8 4 4 5 -2 -2
-3 -7 -6 7 -3 2 -2 4 8 7 9 1 -4 -2 7 4 -2 2 3 -0 1 -4 0 -3 -4 -3 -1 3 -1 -3 -3 8 1 6 2 -4 5 -7 5 8 5 7 9 9 12
-3 2 8 10 1 3 1 15 2 3 8 0 -7 -3 -5 -1 2 -1 -3 10 9 -9 6 -2 3 -4 1 1 4 3 1 11 1 3 -6 -3 -3 -9 1 4 14 15 8 1 19
-1 -1 5 5 -2 13 -8 -17 -13 1 -2 8 -5 -6 -4 -6 -6 -0 -1 -0 16 5 2 -4 -7 -6 4 12 2 4 4 -1 6 -2 -2 -8 0 -0 5 5 -4 -5 -0 6 5
0 -1 2 1 -3 1 -6 1 1 5 8 -6 -5 4 -5 -9 -3 3 7 1 2 3 11 10 3 -2 -4 -2 -0 4 -6 8 -12 -9 9 8 11 -3 -3 -1 -0 -4 2 2 6
Height
5909 5910 5910 5911 5912 5913 5915 5916 5917 5917 5918 5919 5920 5921 5923 5925 5927 5931 5935 5938 5940 5944 5947 5950 5950 5950 5953 5951 5950 5953 5955 5951 5951 5950 5951 5950 5948 5944 5946 5945 5943 5942 5942 5945 5945
5910 5910 5910 5911 5912 5914 5915 5916 5917 5918 5919 5920 5921 5922 5924 5926 5929 5934 5936 5939 5942 5946 5950 5950 5952 5953 5954 5953 5956 5955 5955 5952 5951 5951 5952 5952 5954 5950 5947 5944 5943 5943 5942 5943 5946
5909 5910 5910 5911 5912 5914 5915 5916 5917 5918 5919 5920 5922 5923 5924 5926 5931 5934 5936 5939 5943 5947 5950 5953 5953 5953 5958 5958 5957 5956 5953 5952 5951 5951 5955 5954 5954 5951 5946 5946 5946 5945 5945 5944 5945
5909 5910 5910 5911 5912 5914 5915 5916 5917 5918 5919 5921 5922 5924 5925 5928 5933 5933 5936 5940 5944 5947 5952 5954 5954 5956 5960 5958 5958 5957 5954 5954 5955 5955 5959 5955 5952 5950 5950 5950 5949 5948 5947 5946 5945
5909 5909 5910 5911 5912 5914 5915 5916 5917 5918 5919 5921 5923 5925 5927 5930 5932 5934 5937 5942 5945 5951 5955 5953 5951 5954 5960 5959 5959 5959 5956 5959 5960 5959 5962 5958 5956 5952 5953 5952 5950 5949 5949 5948 5946
5909 5909 5910 5911 5912 5914 5915 5916 5917 5919 5920 5922 5924 5926 5929 5932 5933 5935 5938 5944 5946 5951 5953 5957 5957 5959 5960 5959 5959 5959 5960 5959 5959 5960 5964 5961 5962 5958 5956 5955 5952 5951 5949 5948 5947
5909 5910 5911 5912 5913 5914 5915 5916 5917 5918 5920 5922 5924 5927 5930 5933 5934 5937 5939 5945 5948 5952 5952 5960 5962 5962 5960 5959 5960 5961 5960 5961 5960 5961 5962 5963 5961 5960 5959 5957 5954 5952 5951 5950 5949
5908 5909 5910 5912 5912 5913 5914 5915 5917 5918 5920 5922 5924 5927 5930 5933 5935 5939 5941 5946 5949 5950 5952 5957 5961 5962 5963 5961 5961 5962 5962 5963 5961 5960 5962 5963 5961 5960 5959 5958 5956 5954 5954 5952 5951
5908 5908 5910 5911 5912 5913 5914 5915 5916 5917 5919 5921 5925 5928 5931 5934 5937 5940 5943 5947 5949 5951 5952 5955 5959 5958 5959 5961 5962 5961 5964 5964 5963 5960 5961 5963 5962 5960 5960 5959 5958 5956 5955 5953 5951
5907 5908 5909 5910 5911 5912 5913 5915 5917 5918 5920 5921 5924 5929 5931 5933 5936 5940 5944 5946 5949 5953 5955 5957 5956 5959 5965 5963 5963 5963 5963 5963 5964 5964 5963 5963 5961 5959 5958 5958 5960 5959 5958 5954 5952
5908 5909 5909 5910 5911 5911 5914 5915 5919 5921 5922 5925 5927 5928 5930 5933 5935 5939 5944 5947 5947 5953 5956 5956 5958 5959 5963 5960 5963 5965 5964 5963 5963 5964 5963 5966 5962 5957 5956 5957 5958 5959 5959 5958 5954
5908 5909 5910 5911 5912 5913 5914 5914 5916 5920 5920 5924 5928 5929 5932 5934 5938 5938 5945 5947 5949 5951 5954 5956 5956 5957 5958 5958 5964 5965 5963 5962 5962 5963 5963 5963 5963 5960 5955 5956 5955 5955 5956 5957 5954
5908 5909 5910 5911 5912 5913 5914 5916 5917 5919 5922 5925 5927 5929 5931 5935 5939 5940 5944 5945 5948 5950 5953 5954 5955 5955 5955 5957 5960 5962 5961 5960 5960 5960 5961 5959 5960 5959 5956 5954 5954 5951 5953 5953 5949
5906 5908 5910 5911 5914 5914 5915 5916 5918 5921 5923 5926 5928 5930 5934 5935 5939 5941 5942 5946 5947 5949 5950 5952 5955 5954 5952 5953 5955 5959 5959 5957 5956 5957 5957 5956 5958 5955 5955 5953 5951 5948 5949 5949 5947
5903 5906 5907 5910 5911 5913 5916 5918 5920 5922 5925 5927 5928 5930 5932 5935 5938 5940 5939 5942 5945 5945 5948 5951 5950 5950 5951 5950 5951 5954 5954 5954 5954 5956 5957 5955 5954 5954 5952 5948 5947 5949 5945 5946 5944
5899 5902 5905 5907 5909 5911 5913 5915 5918 5922 5923 5924 5925 5927 5930 5932 5935 5936 5938 5940 5941 5943 5945 5945 5947 5950 5950 5950 5950 5951 5952 5952 5952 5951 5953 5952 5947 5949 5947 5946 5944 5943 5942 5940 5940
5894 5897 5900 5902 5905 5907 5911 5913 5916 5916 5920 5921 5923 5926 5928 5930 5932 5934 5936 5937 5939 5940 5941 5942 5943 5944 5945 5945 5945 5946 5947 5946 5947 5946 5947 5946 5942 5943 5942 5940 5939 5939 5936 5934 5936
5888 5890 5893 5896 5900 5904 5907 5910 5910 5910 5915 5917 5919 5922 5924 5927 5928 5930 5932 5934 5934 5936 5937 5939 5941 5941 5941 5941 5941 5940 5941 5941 5940 5941 5943 5942 5938 5938 5936 5934 5932 5930 5930 5931 5929
5879 5883 5886 5889 5893 5897 5903 5906 5904 5906 5909 5912 5915 5918 5919 5921 5923 5924 5926 5929 5929 5931 5933 5933 5938 5935 5936 5938 5937 5937 5936 5937 5935 5934 5934 5934 5934 5932 5929 5927 5927 5927 5925 5924 5923
5870 5874 5877 5880 5884 5889 5896 5901 5900 5901 5902 5905 5908 5912 5914 5915 5917 5918 5920 5924 5922 5923 5925 5927 5932 5930 5932 5930 5931 5931 5934 5932 5931 5930 5927 5928 5926 5924 5925 5922 5924 5923 5923 5920 5918
5858 5864 5867 5871 5876 5881 5888 5895 5893 5894 5896 5900 5901 5906 5907 5908 5910 5912 5915 5917 5914 5916 5918 5920 5923 5928 5926 5926 5927 5929 5929 5928 5926 5925 5922 5920 5921 5917 5917 5918 5918 5917 5919 5911 5911
5846 5853 5855 5861 5867 5872 5879 5885 5884 5884 5886 5890 5895 5897 5900 5901 5903 5905 5907 5909 5908 5909 5912 5912 5914 5914 5918 5921 5922 5922 5920 5919 5919 5919 5916 5915 5917 5909 5913 5914 5913 5913 5911 5909 5905
5836 5840 5847 5851 5856 5860 5865 5871 5874 5876 5878 5881 5884 5888 5891 5894 5898 5898 5900 5902 5903 5902 5902 5903 5904 5906 5908 5913 5914 5913 5914 5913 5911 5909 5909 5910 5909 5906 5907 5908 5909 5906 5906 5902 5898
5829 5830 5836 5841 5842 5849 5854 5861 5866 5869 5871 5871 5873 5878 5883 5887 5888 5892 5894 5894 5897 5896 5896 5896 5897 5898 5901 5904 5906 5907 5906 5906 5904 5903 5901 5901 5900 5902 5902 5903 5902 5901 5899 5897 5896
5821 5823 5827 5833 5836 5841 5846 5853 5854 5858 5862 5863 5863 5867 5871 5876 5880 5882 5885 5890 5890 5889 5889 5891 5892 5893 5895 5896 5898 5899 5899 5899 5896 5894 5893 5892 5890 5890 5893 5894 5894 5893 5891 5890 5886
5815 5816 5819 5822 5825 5831 5832 5837 5843 5848 5850 5854 5853 5856 5859 5864 5868 5871 5874 5878 5884 5885 5884 5882 5882 5884 5887 5890 5887 5887 5889 5888 5886 5886 5884 5882 5881 5881 5880 5882 5884 5883 5878 5880 5879
5809 5809 5812 5815 5817 5821 5826 5831 5836 5840 5843 5841 5846 5848 5850 5853 5858 5861 5865 5869 5872 5877 5880 5877 5876 5874 5875 5876 5876 5877 5877 5876 5873 5873 5874 5874 5874 5871 5870 5870 5870 5872 5871 5869 5867